Tracking 25953 objects as of 15-Aug-2022
HD Live streaming from Space Station
objects crossing your sky now

DELTA 1 DEB

Track DELTA 1 DEB now!
10-day predictions


NORAD ID: 9042
Int'l Code: 1975-004DG
Perigee: 720.3 km
Apogee: 810.3 km
Inclination: 97.9 °
Period: 100.0 minutes
Semi major axis: 7136 km
RCS: 0.263 m2 (medium)
Launch date: January 22, 1975
Source: United States (US)
Launch site: AIR FORCE WESTERN TEST RANGE (AFWTR)

Note: This is SATELLITE DEBRIS
aabbcc
Your satellite tracking list
Your tracking list is empty




NASA's NSSDC Master Catalog

Two Line Element Set (TLE):
1 09042U 75004DG  22227.53419884  .00000110  00000-0  46197-4 0  9991
2 09042  97.9030 259.0693 0063070  14.6699 345.6303 14.40095730437809
Source of the keplerian elements: AFSPC